Weather in Cfat

Israel     32°57′54″N   35°29′48″E
temp.,
°C
wind,
m/s
gust,
m/s
humid.,
%
clouds,
%
prec.,
mm/h
press.,
hPa
HPBL,
m
23 april, fri
fri2300:00+13nnw32622 0.0 101816
03:00+12nw22531 0.0 101711
06:00+11n22570 0.0 101810
09:00+20e11380 0.0 1018360
12:00+27sse23220 0.0 10161083
15:00+30wsw11170 0.0 10131315
18:00+26nnw3335100 0.0 101379
21:00+20nnw333195 0.0 101418
24 april, sat
sat2400:00+19nnw223442 0.0 101317
03:00+18w003776 0.0 101211
06:00+19nnw222670 0.0 101212
09:00+26ene24224 0.0 1012483
12:00+31se45211 0.0 10101184
15:00+33sw24191 0.0 10081839
18:00+29nw33340 0.0 100784
21:00+22nnw22330 0.0 100917
25 april, sun
sun2500:00+21wsw11384 0.0 101011
03:00+20nnw11382 0.0 100911
06:00+19wsw11400 0.0 100911
09:00+25sse12370 0.0 1009387
12:00+30s33264 0.0 1008875
15:00+31wsw4328100 0.0 10061317
18:00+27nw224574 0.0 1006366
21:00+20nnw11595 0.0 100711
26 april, mon
mon2600:00+18n116325 0.0 100711
03:00+18w11513 0.0 100611
06:00+16wnw32610 0.0 100725
09:00+21sw33444 0.0 1009619
12:00+23wsw67510 0.0 10101092
15:00+21w67490 0.0 10091118
18:00+18wnw46640 0.0 1010796
21:00+13wnw34917 0.0 101278
27 april, tue
tue2700:00+12wnw119210 0.0 101221
03:00+14sw128350 0.1 1012183
06:00+14wsw228866 0.1 101293
09:00+17sw236768 0.2 1013990
12:00+22w44480 0.0 10121460
15:00+23wnw44470 0.0 10121167
18:00+20nw45580 0.0 1012623
21:00+14nw33860 0.0 101445